Regional Weather Roundup
Issued by NWS Northern Indiana

Home | Current Version | Previous Version | Text Only | Print | Product List | Glossary Off
Versions: 1 2 3 4 5 6 7 8 9 10 11 12 13 14 15 16 17 18 19 20 21 22 23 24 25 26 27 28 29 30 31 32 33 34 35 36 37 38 39 40 41 42 43 44 45 46 47 48 49 50

786
ASUS43 KIWX 241100
RWRIWX

KIWX WEATHER ROUNDUP
NATIONAL WEATHER SERVICE NORTHERN INDIANA
700 AM EDT WED AUG 24 2016

NOTE: "FAIR" INDICATES FEW OR NO CLOUDS BELOW 12,000 FEET WITH NO
SIGNIFICANT WEATHER AND/OR OBSTRUCTIONS TO VISIBILITY.

* THESE STATIONS ARE NOT UNDER NWS QUALITY CONTROL. THEY ALSO MAY NOT
  REPORT WEATHER SUCH AS PRECIPITATION OR FOG.

INZ001>027-241200-
NORTHERN INDIANA

CITY           SKY/WX    TMP DP  RH WIND       PRES   REMARKS
GARY*          MOCLDY    73  66  78 S12       30.03F
VALPARAISO     CLOUDY    70  63  78 S8        30.07S
KNOX*          CLOUDY    68  45  42 S7        30.07F
SOUTH BEND     CLOUDY    68  62  81 S8        30.08F
ELKHART*       CLOUDY    68  61  77 S12       30.10
GOSHEN         CLOUDY    69  60  73 S7        30.11S
MONTICELLO*    CLOUDY    70  61  73 S7        30.09S
ANGOLA*        CLEAR     63  61  94 S6        30.13F
FORT WAYNE     CLOUDY    65  61  87 S7        30.14F
PERU/GRISSOM   CLOUDY    69  63  81 S7        30.11S

$$
INZ028>050-241200-
CENTRAL INDIANA

CITY           SKY/WX    TMP DP  RH WIND       PRES   REMARKS
LAFAYETTE      CLOUDY    69  64  84 S6        30.09S
KOKOMO*        CLOUDY    68  59  73 S9        30.13S
MUNCIE*        CLOUDY    71  62  73 S7        30.15S
INDIANAPOLIS   MOCLDY    69  63  81 SE8       30.14R

$$
MIZ043>046-050>051-056>058-064>065-071>073-077>080-241200-
SOUTHWEST LOWER MICHIGAN

CITY           SKY/WX    TMP DP  RH WIND       PRES   REMARKS
BATTLE CREEK   CLOUDY    64  61  90 S8        30.11F
BENTON HARBOR  MOCLDY    70  61  73 S8        30.05F
COLDWATER*     CLEAR     63  61  93 SE6       30.13S
HILLSDALE*     CLEAR     62  58  88 S3        30.15R
HOLLAND        MOCLDY    66  62  87 S8        30.05F
GRAND RAPIDS   LGT RAIN  67  61  81 S9        30.07F
KALAMAZOO      MOCLDY    67  59  75 S6        30.10F
STURGIS*       CLOUDY    65  60  82 S3        30.12R
THREE RIVERS*  CLOUDY    67  62  85 S7        30.11S

$$
OHZ001>008-015>018-024>025-241200-
NORTHWEST OHIO

CITY           SKY/WX    TMP DP  RH WIND       PRES   REMARKS
DEFIANCE       CLOUDY    65  59  81 S7        30.15F
FINDLAY        CLOUDY    65  58  78 SE7       30.18R
TOLEDO EXPRESS PTCLDY    60  59  96 SE3       30.16F
TOLEDO METCALF PTCLDY    59  58  96 SE3       30.18S
LIMA           CLOUDY    64  61  90 S7        30.19R

$$
AND FOR LAKE MICHIGAN COASTAL AND OPEN LAKE BUOY OBSERVATIONS

STATION/POSITION TEMP    WIND        PRES    VSBY  WAVE
                 AIR SEA DIR/SP/G                  HT/PER
                 (F)     (DEG/KT/KT) (MB)    (MI)  (FT/S)
CALUMET HARBOR    72     180/ 11/ 18 1016.0F
MICHIGAN CITY     70     140/ 11/ 13   N/A
BURNS HARBOR      71     180/ 13/ 20 1017.6F
SAINT JOSEPH      70     180/  3/  7 1018.3F
SOUTH LAKE BUOY   74 75  170/ 23/ 29 1014.8          5/ 5
4 MI NW BRIDGMAN  72 75  170/ 16/ 19 1017.6F         2/ 3
MICHIGAN CITY     71 73  180/ 12/ 16   N/A           1/ 2

$$
&&




USA.gov is the U.S. government's official web portal to all federal, state and local government web resources and services.